[[{"header":{"parameterUnit":"m.s-1","parameterCategory":1,"la1":30.2991,"la2":30.254,"lo1":-89.0895,"lo2":-89.0444,"dy":0.0017,"dx":0.0017,"nx":28,"ny":28,"refTime":"2023-08-11T21:00:00:Z","depth":0,"parameterNumber":2,"parameterNumberName":"U-component_of_WINDS"},"data":[0,0,0,0,0,0,0,0,0,0,0,0,0,0,0,0,0,0,0,0,0,0,0,0,0,0,0,0,0,0,0,0,0,0,0,0,0,0,0,0,0,0,0,0,0,0,0,0,0,0,0,0,0,0,0,0,0,0,1.3508,1.351,0,1.3692,1.3694,1.3696,1.377,1.377,1.3769,1.3769,1.3961,1.3966,1.3972,0,0,0,0,0,0,0,0,0,0,0,0,0,1.3224,1.3229,1.3507,1.351,1.3512,1.3692,1.3694,1.3697,1.377,1.377,1.3769,1.3769,1.3959,1.3966,1.3972,0,0,0,0,0,0,0,0,0,0,0,0,0,1.3372,1.3231,1.3507,1.357,1.3578,1.3691,1.3694,1.3697,1.3771,1.377,1.3769,1.3769,1.3957,1.3965,1.3973,1.4038,0,0,1.3998,1.4002,0,0,0,0,0,0,0,0,1.3363,1.3382,1.3559,1.3566,1.3575,1.3707,1.3665,1.3812,1.3771,1.3697,1.3769,1.3768,1.3877,1.3892,1.3928,1.4047,1.4055,1.3999,1.4004,1.4008,1.401,0,0,0,0,0,0,0,1.3353,1.3375,1.3581,1.3561,1.3571,1.3591,1.3612,1.3693,1.3789,1.3704,1.371,1.373,1.3882,1.392,1.3933,1.4058,1.3999,1.4006,1.4011,1.4015,1.4243,1.4244,0,0,0,0,0,0,1.3332,1.3366,1.3575,1.3586,1.3465,1.3597,1.362,1.3666,1.3788,1.3806,1.3731,1.3733,1.3906,1.3924,1.394,1.4027,1.4008,1.4015,1.402,1.4242,1.4244,1.4245,0,0,0,0,0,0,1.3325,1.335,1.3567,1.3478,1.3507,1.3603,1.3654,1.367,1.3708,1.3809,1.3827,1.3752,1.3906,1.3929,1.4014,1.4034,1.4019,1.4027,1.4241,1.4243,1.4244,1.4198,0,0,0,0,0,0,1.3317,1.3347,1.3371,1.3478,1.3511,1.3636,1.3655,1.3674,1.3722,1.3727,1.3833,1.385,1.3908,1.4001,1.4022,1.4045,1.4033,1.424,1.4242,1.4244,1.4198,1.4198,1.4197,0,0,0,0,0,1.3307,1.335,1.3372,1.3397,1.3543,1.3637,1.3656,1.372,1.3723,1.3749,1.3815,1.3847,1.4029,1.4009,1.4033,1.4059,1.4239,1.4241,1.4243,1.4198,1.4198,1.4197,0,0,0,0,0,0,1.3244,1.3365,1.339,1.347,1.3542,1.3649,1.3683,1.3717,1.3791,1.3793,1.387,1.3894,1.3973,1.4025,1.4001,1.4131,1.4136,1.4144,1.4093,1.4094,1.4094,1.408,1.404,0,0,0,0,0,1.3239,1.3303,1.3407,1.3467,1.3502,1.3586,1.363,1.3673,1.3752,1.3783,1.3854,1.393,1.4005,1.4052,1.4126,1.4206,1.4232,1.4237,1.4236,1.4236,1.4241,1.429,1.4294,1.4253,1.4253,1.4253,0,0,1.323,1.3305,1.334,1.3456,1.3518,1.3585,1.3612,1.3681,1.3732,1.3794,1.3879,1.3934,1.4025,1.4108,1.4148,1.4154,1.4259,1.4239,1.4237,1.4244,1.4293,1.4297,1.43,1.4255,1.4254,1.4254,0,0,1.3248,1.331,1.3368,1.343,1.3522,1.3579,1.3593,1.3695,1.3734,1.3821,1.387,1.3933,1.4059,1.4122,1.4171,1.4217,1.425,1.4239,1.4237,1.4284,1.4288,1.4291,1.4309,1.4315,1.4244,1.4244,1.4244,0,1.3225,1.3326,1.3394,1.3461,1.3512,1.3571,1.3633,1.3689,1.3802,1.3836,1.3841,1.4003,1.4067,1.4168,1.4179,1.4216,1.4237,1.4227,1.4281,1.4285,1.429,1.4308,1.4314,1.4242,1.4242,1.4242,1.4243,0,1.3295,1.3365,1.3401,1.3508,1.3564,1.3627,1.3706,1.3754,1.3794,1.3851,1.394,1.402,1.4113,1.414,1.4179,1.4247,1.4248,1.4266,1.4273,1.429,1.4309,1.4317,1.4239,1.424,1.4241,1.4241,0,0,1.3276,1.3422,1.3434,1.3485,1.3594,1.365,1.3718,1.3808,1.3849,1.3926,1.3986,1.4093,1.4111,1.4167,1.4214,1.4255,1.4289,1.4269,1.4272,1.4271,1.4372,1.4358,1.4365,1.4312,1.4314,1.4315,1.4365,0,1.3309,1.3432,1.3497,1.3593,1.366,1.3719,1.3779,1.3853,1.3909,1.3976,1.4038,1.4113,1.413,1.4165,1.4208,1.4275,1.4311,1.4273,1.4371,1.4374,1.4347,1.4375,1.436,1.4402,1.4373,1.4374,1.4375,0,1.3364,1.344,1.3543,1.3647,1.3677,1.3729,1.3819,1.3882,1.3968,1.4006,1.4069,1.4116,1.4193,1.4195,1.4303,1.4276,1.4321,1.436,1.4364,1.4375,1.4375,1.4388,1.4417,1.4424,1.4387,1.4386,1.4385,0,1.3342,1.347,1.3549,1.3591,1.3713,1.3749,1.3802,1.3888,1.3939,1.4018,1.4053,1.414,1.4188,1.4256,1.4326,1.432,1.4428,1.4435,1.4463,1.4462,1.4483,1.4481,1.4521,1.451,1.451,1.451,1.451,0,1.3372,1.3433,1.3541,1.3589,1.3661,1.3736,1.3805,1.3863,1.3939,1.4002,1.4059,1.4117,1.4206,1.4276,1.4332,1.4414,1.4435,1.4469,1.4483,1.4464,1.446,1.4495,1.4494,1.4512,1.4512,1.4511,1.4511,0,1.3359,1.3433,1.3524,1.3633,1.3662,1.371,1.3805,1.3855,1.3915,1.3994,1.4017,1.4111,1.4196,1.4273,1.4386,1.4424,1.4509,1.4526,1.4479,1.4487,1.4511,1.4508,1.4575,1.4588,1.4567,1.4568,1.4568,0,1.3373,1.3422,1.3537,1.3583,1.3635,1.3708,1.3761,1.3838,1.3891,1.3996,1.4035,1.4124,1.42,1.4334,1.4413,1.4501,1.4522,1.454,1.4535,1.4516,1.4524,1.452,1.4527,1.4539,1.4538,1.4538,1.4538,0,1.3392,1.3427,1.3501,1.3589,1.3651,1.3724,1.3799,1.3834,1.3925,1.3983,1.4071,1.4129,1.4246,1.4335,1.4433,1.449,1.453,1.4539,1.4551,1.4532,1.4503,1.452,1.4478,1.4537,1.4537,1.4537,1.4537,1.4537,1.3394,1.3441,1.353,1.3612,1.3677,1.3746,1.38,1.3867,1.3941,1.4042,1.4084,1.4173,1.4263,1.4398,1.4455,1.4528,1.4536,1.4552,1.4556,1.4559,1.4556,1.4491,1.4546,1.4546,1.4546,1.4546,1.4546,0,1.3417,1.3478,1.3552,1.3656,1.3721,1.3753,1.3839,1.3891,1.3969,1.4049,1.4123,1.4226,1.4313,1.4401,1.4494,1.4535,1.4557,1.4557,1.4555,1.4568,1.4543,1.4524,1.4539,1.4539,1.4539,1.4539,1.4539,1.4539,1.3436,1.3518,1.3565,1.3681,1.3742,1.383,1.3877,1.3942,1.4007,1.4119,1.4192,1.4248,1.4332,1.4432,1.4515,1.4538,1.4571,1.4566,1.4595,1.457,1.457,1.4569,1.4552,1.4572,1.4572,1.4615,1.4615,1.4615]},{"header":{"parameterUnit":"m.s-1","parameterCategory":1,"la1":30.2991,"la2":30.254,"lo1":-89.0895,"lo2":-89.0444,"dy":0.0017,"dx":0.0017,"nx":28,"ny":28,"refTime":"2023-08-11T21:00:00:Z","depth":0,"parameterNumber":3,"parameterNumberName":"V-component_of_WINDS"},"data":[0,0,0,0,0,0,0,0,0,0,0,0,0,0,0,0,0,0,0,0,0,0,0,0,0,0,0,0,0,0,0,0,0,0,0,0,0,0,0,0,0,0,0,0,0,0,0,0,0,0,0,0,0,0,0,0,0,0,5.4487,5.4489,0,5.4693,5.4695,5.4698,5.4727,5.4726,5.4724,5.4722,5.4921,5.4928,5.4935,0,0,0,0,0,0,0,0,0,0,0,0,0,5.4107,5.4114,5.4486,5.4489,5.4492,5.4693,5.4695,5.4698,5.4728,5.4726,5.4723,5.4721,5.4919,5.4927,5.4935,0,0,0,0,0,0,0,0,0,0,0,0,0,5.4288,5.4116,5.4486,5.4531,5.4537,5.4692,5.4696,5.4699,5.4728,5.4725,5.4723,5.472,5.4916,5.4926,5.4936,5.5057,0,0,5.4969,5.4973,0,0,0,0,0,0,0,0,5.4278,5.4302,5.4522,5.4528,5.4535,5.4682,5.4635,5.4819,5.4729,5.4655,5.4722,5.4719,5.4843,5.4859,5.4904,5.5066,5.5075,5.497,5.4976,5.498,5.4983,0,0,0,0,0,0,0,5.4265,5.4293,5.4568,5.4525,5.4533,5.4537,5.456,5.467,5.4762,5.4661,5.4664,5.4689,5.4846,5.4893,5.4908,5.5078,5.4969,5.4979,5.4985,5.4989,5.535,5.5353,0,0,0,0,0,0,5.4246,5.4282,5.4561,5.4574,5.4397,5.4546,5.4572,5.4637,5.4761,5.4777,5.4691,5.469,5.4877,5.4896,5.4915,5.5066,5.498,5.499,5.4996,5.5347,5.5351,5.5355,0,0,0,0,0,0,5.4238,5.4271,5.4553,5.4429,5.4466,5.4556,5.4629,5.4643,5.4691,5.4783,5.4799,5.4724,5.4875,5.4901,5.5023,5.5073,5.4995,5.5005,5.5343,5.5348,5.5353,5.5367,0,0,0,0,0,0,5.4227,5.4268,5.4317,5.443,5.4472,5.466,5.4633,5.4649,5.471,5.471,5.4818,5.4833,5.4875,5.5007,5.5033,5.5086,5.5013,5.5339,5.5345,5.5351,5.5362,5.5372,5.538,0,0,0,0,0,5.4213,5.431,5.4319,5.4353,5.4536,5.4663,5.4686,5.4737,5.4714,5.4763,5.4823,5.4829,5.5063,5.5019,5.5049,5.5106,5.5336,5.5344,5.5351,5.5358,5.537,5.5379,0,0,0,0,0,0,5.4195,5.4325,5.4337,5.4474,5.4558,5.4668,5.4731,5.4747,5.4836,5.4831,5.4886,5.491,5.503,5.508,5.5028,5.5229,5.5197,5.5211,5.5193,5.5204,5.5213,5.5198,5.5022,0,0,0,0,0,5.4208,5.4304,5.441,5.4521,5.4563,5.464,5.4696,5.4729,5.4816,5.485,5.4918,5.4999,5.5091,5.515,5.524,5.5369,5.5393,5.5423,5.5432,5.5438,5.5449,5.5522,5.5537,5.5379,5.5379,5.5379,0,0,5.4233,5.4316,5.4372,5.4519,5.4588,5.4683,5.4669,5.4769,5.484,5.4864,5.4985,5.5038,5.5131,5.5258,5.5317,5.5303,5.5499,5.5448,5.5453,5.546,5.5531,5.5546,5.5559,5.5384,5.5383,5.5382,0,0,5.4329,5.4402,5.4503,5.4573,5.4679,5.473,5.4754,5.4862,5.49,5.5023,5.5044,5.5126,5.5283,5.535,5.5404,5.5526,5.5536,5.5553,5.5599,5.5669,5.5681,5.5693,5.5737,5.5752,5.5564,5.5564,5.5564,0,5.4346,5.4494,5.4551,5.4653,5.4716,5.4747,5.4848,5.4911,5.5039,5.508,5.5064,5.5264,5.5329,5.5472,5.5502,5.5545,5.5573,5.5541,5.5676,5.5688,5.5699,5.5741,5.5758,5.5566,5.5565,5.5565,5.5565,0,5.451,5.4613,5.468,5.4809,5.488,5.4979,5.5048,5.5112,5.5138,5.519,5.5314,5.5394,5.5501,5.5537,5.5561,5.5684,5.5672,5.5665,5.5634,5.5715,5.5756,5.5772,5.5568,5.5567,5.5567,5.5567,0,0,5.4599,5.476,5.4784,5.4843,5.4963,5.5041,5.5142,5.5251,5.5305,5.5391,5.5476,5.561,5.5605,5.5666,5.5698,5.576,5.5853,5.5745,5.5748,5.5763,5.5993,5.5998,5.6016,5.586,5.5863,5.5866,5.5985,0,5.4709,5.4896,5.495,5.5105,5.5199,5.5231,5.5318,5.5399,5.545,5.5535,5.5589,5.5683,5.5669,5.5707,5.5769,5.5828,5.5899,5.582,5.5936,5.594,5.5913,5.6037,5.6043,5.6152,5.6001,5.6004,5.6006,0,5.4863,5.4958,5.5124,5.5234,5.5275,5.5354,5.5459,5.554,5.5632,5.5664,5.5735,5.5762,5.5865,5.5829,5.5971,5.5916,5.5966,5.6002,5.6007,5.602,5.5978,5.6054,5.6188,5.6204,5.6031,5.6029,5.6028,0,5.4912,5.5081,5.5203,5.5252,5.5383,5.5437,5.5493,5.5583,5.5645,5.5735,5.5776,5.5875,5.5929,5.6004,5.6056,5.6025,5.6194,5.6161,5.6222,5.6221,5.6256,5.6253,5.64,5.6288,5.6287,5.6287,5.6287,0,5.5029,5.5129,5.5227,5.5302,5.5414,5.5474,5.5583,5.5639,5.5719,5.5803,5.5834,5.5911,5.5976,5.6061,5.6101,5.6213,5.6236,5.6264,5.6273,5.6262,5.6258,5.6296,5.629,5.6291,5.629,5.629,5.6289,0,5.5103,5.5173,5.5308,5.5422,5.5453,5.5531,5.5627,5.5699,5.5751,5.5857,5.5885,5.5967,5.6069,5.6129,5.6255,5.6283,5.6407,5.6412,5.6377,5.6382,5.6439,5.6433,5.6616,5.6643,5.6511,5.6513,5.6514,0,5.5173,5.5252,5.5376,5.5438,5.5496,5.5593,5.5658,5.572,5.5786,5.5898,5.5956,5.6061,5.6148,5.6309,5.6377,5.6474,5.6483,5.654,5.6497,5.6483,5.6484,5.648,5.6488,5.6547,5.6548,5.6549,5.655,0,5.5292,5.5323,5.5419,5.5528,5.5606,5.5693,5.5779,5.5826,5.5901,5.5973,5.6081,5.6149,5.6281,5.6384,5.6488,5.6541,5.6558,5.6563,5.6583,5.6571,5.6548,5.6563,5.6398,5.6559,5.6558,5.6557,5.6557,5.6556,5.5367,5.5439,5.5539,5.5644,5.5717,5.5797,5.5872,5.5936,5.6028,5.6144,5.6173,5.6285,5.6375,5.6517,5.6573,5.6659,5.6649,5.6677,5.6684,5.669,5.6693,5.6535,5.6678,5.6678,5.6678,5.6677,5.6677,0,5.5487,5.5554,5.5651,5.5773,5.5856,5.5869,5.5965,5.6032,5.6133,5.6217,5.6304,5.6427,5.6528,5.6605,5.6707,5.6762,5.6772,5.6786,5.6783,5.6795,5.6695,5.6669,5.6777,5.6777,5.6777,5.6777,5.6777,5.6777,5.556,5.5683,5.5726,5.5885,5.595,5.6065,5.6119,5.6192,5.626,5.6398,5.6484,5.6535,5.6616,5.6725,5.6817,5.6837,5.6873,5.6887,5.6908,5.6813,5.6802,5.6792,5.6768,5.6894,5.6895,5.7001,5.7002,5.7003]}]]